This is the latest recevied weather packets stored in our database for station/object E24YPM-1. If no packets are shown the sender has not sent any weather packets the latest 10 day(s).
| Time | Temp. | Humidity | Pressure | Rain* | Wind** | Luminosity | Snow |
|---|---|---|---|---|---|---|---|
| 1777902059 | 33.89° C | 36% | 1004 hPa | - | - | 0 W/m² | - |
| 1777901145 | 34.44° C | 40% | 1004 hPa | - | - | 0 W/m² | - |
| 1777900233 | 35.56° C | 46% | 1003 hPa | - | - | 0 W/m² | - |
| 1777899321 | 36.11° C | 48% | 1003 hPa | - | - | 0 W/m² | - |
| 1777898409 | 36.11° C | 48% | 1003 hPa | - | - | 0 W/m² | - |
| 1777897497 | 36.11° C | 49% | 1003 hPa | - | - | 0 W/m² | - |
| 1777896584 | 36.11° C | 48% | 1003 hPa | - | - | 0 W/m² | - |
| 1777895672 | 36.11° C | 47% | 1002 hPa | - | - | 0 W/m² | - |
| 1777894763 | 36.67° C | 44% | 1002 hPa | - | - | 0 W/m² | - |
| 1777893847 | 37.22° C | 42% | 1002 hPa | - | - | 0 W/m² | - |
| 1777892935 | 37.22° C | 43% | 1001 hPa | - | - | 0 W/m² | - |
| 1777892068 | 36.67° C | 45% | 1001 hPa | - | - | 0 W/m² | - |
| 1777891107 | 36.11° C | 45% | 1001 hPa | - | - | 0 W/m² | - |
| 1777890195 | 36.67° C | 45% | 1001 hPa | - | - | 0 W/m² | - |
| 1777889345 | 36.67° C | 46% | 1001 hPa | - | - | 0 W/m² | - |
| 1777888370 | 36.67° C | 46% | 1000 hPa | - | - | 0 W/m² | - |
| 1777887474 | 36.67° C | 46% | 1000 hPa | - | - | 0 W/m² | - |
| 1777886544 | 37.22° C | 46% | 1000 hPa | - | - | 0 W/m² | - |
| 1777885631 | 37.22° C | 47% | 1001 hPa | - | - | 0 W/m² | - |
| 1777884718 | 36.67° C | 48% | 1001 hPa | - | - | 0 W/m² | - |
| 1777883805 | 36.67° C | 48% | 1001 hPa | - | - | 0 W/m² | - |
| 1777882893 | 36.67° C | 49% | 1001 hPa | - | - | 0 W/m² | - |
| 1777881979 | 36.67° C | 51% | 1001 hPa | - | - | 0 W/m² | - |
| 1777881342 | 36.67° C | 51% | 1001 hPa | - | - | 0 W/m² | - |
| 1777880428 | 36.67° C | 51% | 1002 hPa | - | - | 0 W/m² | - |
* Rain since midnight (hover to see other rain measurements)
** Current wind speed in m/s (hover to see current wind gust speed)